Location: Newark
(47.4417°N, 1.1394°W)
Time: 09:35:59
(UTC+00:00)

Envisat - Pass Details

Date: 26 November 2019
Orbit: 764 x 766 km, 98.1° (Epoch: 16 December)

Event Time Altitude Azimuth Distance (km) Brightness Sun altitude
Rises 19:37:13 0° 221° (SW) 3,223 6.7 -33.0°
Reaches altitude 10° 19:41:05 10° 251° (WSW) 2,303 6.2 -33.6°
Maximum altitude 19:43:04 12° 274° (W) 2,158 6.1 -33.9°
Drops below altitude 10° 19:45:03 10° 297° (WNW) 2,310 6.2 -34.3°
Sets 19:48:58 0° 328° (NNW) 3,243 6.7 -34.9°
